This is the latest recevied weather packets stored in our database for station/object NN5DX-13. If no packets are shown the sender has not sent any weather packets the latest 10 day(s).
| Time | Temp. | Humidity | Pressure | Rain* | Wind** | Luminosity | Snow |
|---|---|---|---|---|---|---|---|
| 1778328017 | 12.22° C | 69% | 1012.9 hPa | 0 mm | - | - | - |
| 1778327717 | 11.67° C | 69% | 1012.6 hPa | 0 mm | - | - | - |
| 1778327417 | 11.67° C | 69% | 1012.4 hPa | 0 mm | - | - | - |
| 1778327117 | 11.67° C | 69% | 1012.7 hPa | 0 mm | - | - | - |
| 1778326817 | 12.22° C | 69% | 1012.9 hPa | 0 mm | - | - | - |
| 1778326517 | 12.22° C | 68% | 1012.9 hPa | 0 mm | - | - | - |
| 1778326218 | 12.22° C | 69% | 1012.7 hPa | 0 mm | - | - | - |
| 1778325918 | 12.78° C | 67% | 1012.7 hPa | 0 mm | - | - | - |
| 1778325617 | 12.78° C | 66% | 1012.7 hPa | 0 mm | - | - | - |
| 1778325317 | 13.33° C | 65% | 1012.9 hPa | 0 mm | - | - | - |
| 1778325017 | 13.33° C | 65% | 1013 hPa | 0 mm | - | - | - |
| 1778324717 | 13.89° C | 64% | 1013 hPa | 0 mm | - | - | - |
| 1778324417 | 13.89° C | 63% | 1013.1 hPa | 0 mm | - | - | - |
| 1778324117 | 13.89° C | 62% | 1013 hPa | 0 mm | - | - | - |
| 1778323817 | 13.89° C | 61% | 1013.1 hPa | 0 mm | - | - | - |
| 1778323517 | 13.89° C | 61% | 1012.8 hPa | 0 mm | - | - | - |
| 1778323218 | 13.33° C | 62% | 1012.8 hPa | 0 mm | - | - | - |
| 1778322920 | 13.89° C | 61% | 1012.6 hPa | 0 mm | - | - | - |
| 1778322617 | 13.89° C | 62% | 1012.6 hPa | 0 mm | - | - | - |
| 1778322317 | 13.33° C | 63% | 1012.8 hPa | 0 mm | - | - | - |
| 1778322017 | 12.78° C | 66% | 1012.8 hPa | 0 mm | - | - | - |
| 1778321717 | 12.22° C | 66% | 1012.1 hPa | 0 mm | - | - | - |
| 1778321418 | 12.78° C | 65% | 1012.4 hPa | 0 mm | - | - | - |
| 1778321117 | 12.78° C | 65% | 1012.3 hPa | 0 mm | - | - | - |
| 1778320817 | 13.33° C | 64% | 1012.2 hPa | 0 mm | - | - | - |
* Rain latest hour (hover to see other rain measurements)
** Current wind speed in m/s (hover to see current wind gust speed)